When you browse on this site, cookies collect data to enhance your experience and personalize the content and advertising you see.
Visit our Privacy Policy to learn more. By continuing to use the site, you agree to this use of cookies and data.
  • In Norway
  • List of Countries
  • For 7 days
  • Water Temperature
  • Satellite Maps
  • Weather Map
  • Weather Widgets
  • user-avatar
    Login

    Hourly Weather Akaba

    Today, 22 January, Tuesday

    Time Temperature Precipitation Wind Pressure Humidity
    00:00 +19°C° 0 mm 1 mps 750 mmHg 41%
    01:00 +18°C° 0 mm 1 mps 750 mmHg 43%
    02:00 +18°C° 0 mm 2 mps 750 mmHg 43%
    03:00 +17°C° 0 mm 2 mps 750 mmHg 46%
    04:00 +18°C° 0 mm 1 mps 750 mmHg 49%
    05:00 +16°C° 0 mm 1 mps 750 mmHg 52%
    06:00 +18°C° 0 mm 1 mps 750 mmHg 50%
    07:00 +19°C° 0 mm 1 mps 750 mmHg 48%
    08:00 +21°C° 0 mm 1 mps 750 mmHg 42%
    09:00 +22°C° 0 mm 1 mps 750 mmHg 39%
    10:00 +23°C° 0 mm 1 mps 750 mmHg 36%
    11:00 +24°C° 0 mm 2 mps 750 mmHg 32%
    12:00 +24°C° 0 mm 2 mps 750 mmHg 29%
    13:00 +25°C° 0 mm 2 mps 750 mmHg 26%
    14:00 +25°C° 0 mm 3 mps 749 mmHg 23%
    15:00 +24°C° 0 mm 3 mps 749 mmHg 24%
    16:00 +22°C° 0 mm 3 mps 749 mmHg 25%
    17:00 +21°C° 0 mm 3 mps 749 mmHg 25%
    18:00 +20°C° 0 mm 3 mps 750 mmHg 30%
    19:00 +19°C° 0 mm 2 mps 750 mmHg 34%
    20:00 +18°C° 0 mm 2 mps 750 mmHg 38%
    21:00 +17°C° 0 mm 2 mps 750 mmHg 40%
    22:00 +17°C° 0 mm 2 mps 751 mmHg 42%
    23:00 +16°C° 0 mm 2 mps 751 mmHg 44%

    Tomorrow, 23 January, Wednesday

    Time Temperature Precipitation Wind Pressure Humidity
    00:00 +16°C° 0 mm 2 mps 751 mmHg 45%
    01:00 +15°C° 0 mm 2 mps 751 mmHg 46%
    02:00 +15°C° 0 mm 2 mps 751 mmHg 47%
    03:00 +15°C° 0 mm 2 mps 750 mmHg 47%
    04:00 +14°C° 0 mm 2 mps 750 mmHg 47%
    05:00 +14°C° 0 mm 2 mps 750 mmHg 47%
    06:00 +15°C° 0 mm 2 mps 750 mmHg 43%
    07:00 +16°C° 0 mm 2 mps 750 mmHg 39%
    08:00 +16°C° 0 mm 2 mps 751 mmHg 35%
    09:00 +18°C° 0 mm 2 mps 750 mmHg 30%
    10:00 +21°C° 0 mm 1 mps 750 mmHg 26%
    11:00 +22°C° 0 mm 1 mps 750 mmHg 22%
    12:00 +23°C° 0 mm 2 mps 749 mmHg 20%
    13:00 +24°C° 0 mm 2 mps 748 mmHg 18%
    14:00 +25°C° 0 mm 2 mps 748 mmHg 16%
    15:00 +24°C° 0 mm 2 mps 748 mmHg 17%
    16:00 +23°C° 0 mm 2 mps 748 mmHg 18%
    17:00 +23°C° 0 mm 2 mps 747 mmHg 18%
    18:00 +21°C° 0 mm 2 mps 748 mmHg 19%
    19:00 +20°C° 0 mm 2 mps 748 mmHg 19%
    20:00 +20°C° 0 mm 2 mps 748 mmHg 19%
    21:00 +19°C° 0 mm 2 mps 748 mmHg 19%
    22:00 +19°C° 0 mm 2 mps 748 mmHg 18%
    23:00 +18°C° 0 mm 2 mps 748 mmHg 18%

    Day after tomorrow, 24 January, Thursday

    Time Temperature Precipitation Wind Pressure Humidity
    00:00 +18°C° 0 mm 2 mps 748 mmHg 18%
    01:00 +18°C° 0 mm 3 mps 748 mmHg 18%
    02:00 +17°C° 0 mm 3 mps 748 mmHg 19%
    03:00 +17°C° 0 mm 3 mps 748 mmHg 19%
    04:00 +17°C° 0 mm 3 mps 747 mmHg 20%
    05:00 +17°C° 0 mm 3 mps 747 mmHg 21%
    06:00 +18°C° 0 mm 3 mps 747 mmHg 21%
    07:00 +19°C° 0 mm 3 mps 748 mmHg 21%
    08:00 +19°C° 0 mm 3 mps 748 mmHg 20%
    09:00 +21°C° 0 mm 4 mps 747 mmHg 20%
    10:00 +23°C° 0 mm 5 mps 747 mmHg 19%
    11:00 +26°C° 0 mm 6 mps 747 mmHg 18%
    12:00 +26°C° 0 mm 6 mps 746 mmHg 18%
    13:00 +27°C° 0 mm 7 mps 746 mmHg 18%
    14:00 +27°C° 0 mm 7 mps 745 mmHg 19%
    15:00 +26°C° 0 mm 6 mps 746 mmHg 22%
    16:00 +25°C° 0 mm 5 mps 746 mmHg 25%
    17:00 +24°C° 0 mm 3 mps 746 mmHg 28%
    18:00 +22°C° 0 mm 3 mps 747 mmHg 31%
    19:00 +21°C° 0 mm 2 mps 748 mmHg 34%
    20:00 +20°C° 0 mm 2 mps 748 mmHg 37%
    21:00 +19°C° 0 mm 2 mps 749 mmHg 37%
    22:00 +19°C° 0 mm 1 mps 749 mmHg 37%
    23:00 +19°C° 0 mm 1 mps 749 mmHg 37%

    25 January, Friday

    Time Temperature Precipitation Wind Pressure Humidity
    00:00 +18°C° 0 mm 1 mps 749 mmHg 36%
    01:00 +18°C° 0 mm 1 mps 749 mmHg 35%
    02:00 +16°C° 0 mm 1 mps 749 mmHg 35%
    03:00 +16°C° 0 mm 1 mps 749 mmHg 38%
    04:00 +16°C° 0 mm 2 mps 748 mmHg 42%
    05:00 +16°C° 0 mm 2 mps 748 mmHg 45%
    06:00 +18°C° 0 mm 1 mps 749 mmHg 47%
    07:00 +19°C° 0 mm 1 mps 749 mmHg 49%
    08:00 +20°C° 0 mm 1 mps 749 mmHg 51%
    09:00 +20°C° 0 mm 2 mps 749 mmHg 53%
    10:00 +23°C° 0 mm 2 mps 749 mmHg 55%
    11:00 +24°C° 0 mm 2 mps 749 mmHg 57%
    12:00 +25°C° 0 mm 3 mps 748 mmHg 55%
    13:00 +26°C° 0 mm 5 mps 747 mmHg 52%
    14:00 +27°C° 0 mm 6 mps 747 mmHg 49%
    15:00 +27°C° 0 mm 5 mps 747 mmHg 50%
    16:00 +26°C° 0 mm 4 mps 747 mmHg 50%
    17:00 +25°C° 0 mm 3 mps 747 mmHg 50%
    18:00 +24°C° 0 mm 2 mps 747 mmHg 54%
    19:00 +23°C° 0 mm 2 mps 748 mmHg 58%
    20:00 +22°C° 0 mm 1 mps 748 mmHg 62%
    21:00 +22°C° 0 mm 1 mps 748 mmHg 66%
    22:00 +20°C° 0 mm 2 mps 748 mmHg 69%
    23:00 +20°C° 0 mm 2 mps 748 mmHg 72%

    26 January, Saturday

    Time Temperature Precipitation Wind Pressure Humidity
    00:00 +20°C° 0 mm 2 mps 748 mmHg 75%
    01:00 +20°C° 0 mm 2 mps 747 mmHg 78%
    02:00 +19°C° 0 mm 2 mps 747 mmHg 80%
    03:00 +19°C° 0 mm 2 mps 747 mmHg 82%
    04:00 +19°C° 0 mm 2 mps 747 mmHg 84%
    05:00 +19°C° 0 mm 2 mps 747 mmHg 86%
    06:00 +20°C° 0.1 mm 1 mps 747 mmHg 84%
    07:00 +21°C° 0.1 mm 1 mps 747 mmHg 83%
    08:00 +22°C° 0.1 mm 1 mps 747 mmHg 81%
    09:00 +23°C° 0.1 mm 2 mps 747 mmHg 75%
    10:00 +24°C° 0.1 mm 2 mps 747 mmHg 69%
    11:00 +26°C° 0.1 mm 3 mps 747 mmHg 63%
    12:00 +27°C° 0 mm 4 mps 746 mmHg 56%
    13:00 +27°C° 0 mm 5 mps 746 mmHg 49%
    14:00 +28°C° 0 mm 5 mps 745 mmHg 42%
    15:00 +28°C° 0 mm 5 mps 746 mmHg 44%
    16:00 +27°C° 0 mm 4 mps 746 mmHg 45%
    17:00 +26°C° 0 mm 3 mps 746 mmHg 46%
    18:00 +25°C° 0 mm 2 mps 746 mmHg 49%
    19:00 +23°C° 0 mm 2 mps 747 mmHg 52%
    20:00 +22°C° 0 mm 1 mps 747 mmHg 54%
    21:00 +22°C° 0 mm 1 mps 747 mmHg 50%
    22:00 +21°C° 0 mm 1 mps 747 mmHg 46%
    23:00 +20°C° 0 mm 1 mps 748 mmHg 42%

    27 January, Sunday

    Time Temperature Precipitation Wind Pressure Humidity
    00:00 +20°C° 0 mm 1 mps 748 mmHg 39%
    01:00 +19°C° 0 mm 1 mps 747 mmHg 37%
    02:00 +19°C° 0 mm 1 mps 747 mmHg 34%
    03:00 +18°C° 0 mm 1 mps 747 mmHg 35%
    04:00 +18°C° 0 mm 1 mps 747 mmHg 35%
    05:00 +16°C° 0 mm 2 mps 747 mmHg 35%
    06:00 +17°C° 0 mm 2 mps 748 mmHg 34%
    07:00 +17°C° 0 mm 2 mps 748 mmHg 33%
    08:00 +18°C° 0 mm 2 mps 748 mmHg 32%
    09:00 +19°C° 0 mm 2 mps 748 mmHg 29%
    10:00 +22°C° 0 mm 1 mps 748 mmHg 25%
    11:00 +23°C° 0 mm 1 mps 748 mmHg 21%
    12:00 +24°C° 0 mm 2 mps 748 mmHg 19%
    13:00 +25°C° 0 mm 2 mps 747 mmHg 17%
    14:00 +25°C° 0 mm 2 mps 747 mmHg 15%
    15:00 +25°C° 0 mm 2 mps 747 mmHg 15%
    16:00 +24°C° 0 mm 3 mps 747 mmHg 16%
    17:00 +23°C° 0 mm 4 mps 748 mmHg 16%
    18:00 +21°C° 0 mm 3 mps 748 mmHg 19%
    19:00 +20°C° 0 mm 3 mps 749 mmHg 22%
    20:00 +19°C° 0 mm 3 mps 750 mmHg 25%
    21:00 +18°C° 0 mm 3 mps 750 mmHg 26%
    22:00 +17°C° 0 mm 2 mps 750 mmHg 28%
    23:00 +16°C° 0 mm 2 mps 751 mmHg 29%
    Show more